Oakland, MD

8:21 AM EDT on May 25, 2017 (GMT -0400)
Oakland

Weather History for K2G4 - February, 2014

Change the Weather History Date:

Thursday, February 20, 2014

  Actual Average (KMGW) Record (KMGW)
Temperature  
Mean Temperature 39 °F -  
Max Temperature 48 °F 44 °F 70 °F (1994)
Min Temperature 30 °F 26 °F -7 °F (2015)
Degree Days  
Heating Degree Days 26    
Moisture  
Dew Point 24 °F    
Average Humidity 60    
Maximum Humidity 93    
Minimum Humidity 37    
Precipitation  
Precipitation 0.00 in - - ()
Sea Level Pressure  
Sea Level Pressure 29.97 in    
Wind  
Wind Speed 10 mph (SSE)    
Max Wind Speed 21 mph    
Max Gust Speed 26 mph    
Visibility 10 miles    
Events      
Averages and records for this station are not official NWS values.
T = Trace of Precipitation, MM = Missing Value Source: NWS Daily Summary

Daily Weather History Graph

Daily Weather History Graph

Search for Another Location

Airport or City:

Trip Planner

Search our weather history database for the weather conditions in past years. The results will help you decide how hot, cold, wet, or windy it might be!

Date:

Astronomy

Feb. 20, 2014 Rise Set
Actual Time 7:03 AM EST 5:59 PM EST
Civil Twilight 6:35 AM EST 6:26 PM EST
Nautical Twilight 6:04 AM EST 6:58 PM EST
Astronomical Twilight 5:33 AM EST 7:29 PM EST
Moon 11:50 PM EST (2/20) 9:46 AM EST (2/20)
Length of Visible Light 11h 51m
Length of Day
10h 56m
Waning Gibbous, 71% of the Moon is Illuminated
Feb 20
Waning Gibbous
Feb 22
Last Quarter
Mar 1
New
Mar 8
First Quarter
Mar 16
Full

Hourly Weather History & Observations

Time (EST) Temp. Windchill Dew Point Humidity Pressure Visibility Wind Dir Wind Speed Gust Speed Precip Events Conditions
12:15 AM 32.0 °F - 26.6 °F 80% 30.06 in 10.0 mi Calm Calm - N/A   Clear
12:35 AM 30.2 °F 25.4 °F 26.6 °F 86% 30.06 in 10.0 mi SSW 4.6 mph - N/A   Clear
12:55 AM 32.0 °F 27.5 °F 26.6 °F 80% 30.05 in 10.0 mi SW 4.6 mph - N/A   Clear
1:15 AM 32.0 °F 28.7 °F 26.6 °F 80% 30.06 in 10.0 mi South 3.5 mph - N/A   Clear
1:40 AM 30.2 °F 24.3 °F 28.4 °F 93% 30.06 in 10.0 mi South 5.8 mph - N/A   Clear
2:00 AM 30.2 °F 22.6 °F 28.4 °F 93% 30.06 in 10.0 mi SSE 8.1 mph - N/A   Clear
2:20 AM 30.2 °F 23.4 °F 28.4 °F 93% 30.08 in 10.0 mi South 6.9 mph - N/A   Clear
2:40 AM 30.2 °F 22.6 °F 28.4 °F 93% 30.09 in 10.0 mi South 8.1 mph - N/A   Clear
3:00 AM 30.2 °F 23.4 °F 26.6 °F 86% 30.09 in 10.0 mi South 6.9 mph - N/A   Clear
3:20 AM 30.2 °F 23.4 °F 23.0 °F 75% 30.07 in 10.0 mi South 6.9 mph - N/A   Clear
3:40 AM 32.0 °F 26.4 °F 19.4 °F 60% 30.08 in 10.0 mi South 5.8 mph - N/A   Clear
4:00 AM 32.0 °F 26.4 °F 17.6 °F 55% 30.09 in 10.0 mi South 5.8 mph - N/A   Clear
4:20 AM 32.0 °F 25.6 °F 14.0 °F 48% 30.08 in 10.0 mi SSE 6.9 mph - N/A   Clear
4:40 AM 32.0 °F 25.6 °F 14.0 °F 48% 30.07 in 10.0 mi SE 6.9 mph - N/A   Clear
5:00 AM 32.0 °F 24.8 °F 15.8 °F 51% 30.07 in 10.0 mi SE 8.1 mph - N/A   Clear
5:20 AM 30.2 °F 20.8 °F 17.6 °F 60% 30.07 in 10.0 mi SE 11.5 mph - N/A   Clear
5:40 AM 30.2 °F 20.2 °F 19.4 °F 64% 30.07 in 10.0 mi SE 12.7 mph - N/A   Clear
6:00 AM 32.0 °F 22.1 °F 19.4 °F 60% 30.08 in 10.0 mi SE 13.8 mph - N/A   Clear
6:20 AM 32.0 °F 22.1 °F 19.4 °F 60% 30.08 in 10.0 mi SE 13.8 mph - N/A   Clear
6:40 AM 32.0 °F 20.8 °F 19.4 °F 60% 30.07 in 10.0 mi SSE 17.3 mph 20.7 mph N/A   Clear
7:00 AM 32.0 °F 20.8 °F 19.4 °F 60% 30.07 in 10.0 mi SE 17.3 mph - N/A   Clear
7:20 AM 32.0 °F 21.6 °F 19.4 °F 60% 30.07 in 10.0 mi SSE 15.0 mph - N/A   Clear
7:40 AM 32.0 °F 22.1 °F 19.4 °F 60% 30.06 in 10.0 mi SE 13.8 mph - N/A   Clear
8:00 AM 33.8 °F 23.9 °F 19.4 °F 56% 30.06 in 10.0 mi SE 15.0 mph - N/A   Clear
8:20 AM 33.8 °F 23.9 °F 19.4 °F 56% 30.06 in 10.0 mi SE 15.0 mph - N/A   Clear
8:40 AM 33.8 °F 24.8 °F 19.4 °F 56% 30.06 in 10.0 mi SE 12.7 mph - N/A   Scattered Clouds
9:00 AM 33.8 °F 25.3 °F 19.4 °F 56% 30.06 in 10.0 mi SE 11.5 mph - N/A   Clear
9:20 AM 35.6 °F 25.9 °F 19.4 °F 52% 30.05 in 10.0 mi SE 16.1 mph - N/A   Clear
9:40 AM 35.6 °F 25.9 °F 19.4 °F 52% 30.04 in 10.0 mi SE 16.1 mph - N/A   Clear
10:00 AM 35.6 °F 25.5 °F 19.4 °F 52% 30.04 in 10.0 mi SE 17.3 mph - N/A   Clear
10:20 AM 37.4 °F 27.5 °F 19.4 °F 48% 30.02 in 10.0 mi SE 18.4 mph 21.9 mph N/A   Clear
10:40 AM 41.0 °F 32.2 °F 17.6 °F 39% 30.02 in 10.0 mi SE 18.4 mph 24.2 mph N/A   Clear
11:00 AM 41.0 °F 32.8 °F 17.6 °F 39% 30.00 in 10.0 mi SE 16.1 mph - N/A   Clear
11:20 AM 41.0 °F 31.9 °F 17.6 °F 39% 30.00 in 10.0 mi SE 19.6 mph 24.2 mph N/A   Scattered Clouds
11:40 AM 41.0 °F 32.5 °F 17.6 °F 39% 29.99 in 10.0 mi SE 17.3 mph 23.0 mph N/A   Mostly Cloudy
12:00 PM 41.0 °F 33.1 °F 21.2 °F 45% 29.99 in 10.0 mi SSE 15.0 mph 20.7 mph N/A   Overcast
12:20 PM 42.8 °F 35.1 °F 19.4 °F 39% 29.98 in 10.0 mi SSE 16.1 mph 23.0 mph N/A   Overcast
12:40 PM 41.0 °F 32.5 °F 26.6 °F 57% 29.96 in 5.0 mi SE 17.3 mph 24.2 mph N/A   Haze
1:00 PM 41.0 °F 31.6 °F 24.8 °F 53% 29.95 in 10.0 mi SE 20.7 mph 26.5 mph N/A   Mostly Cloudy
1:20 PM 42.8 °F 34.5 °F 21.2 °F 42% 29.94 in 10.0 mi SSE 18.4 mph 26.5 mph N/A   Mostly Cloudy
1:40 PM 44.6 °F 37.4 °F 19.4 °F 37% 29.92 in 10.0 mi SSE 16.1 mph - N/A   Scattered Clouds
2:00 PM 44.6 °F 37.2 °F 19.4 °F 37% 29.91 in 10.0 mi SSE 17.3 mph 21.9 mph N/A   Scattered Clouds
2:20 PM 44.6 °F 37.8 °F 19.4 °F 37% 29.91 in 10.0 mi SSE 15.0 mph - N/A   Scattered Clouds
2:40 PM 44.6 °F 38.8 °F 19.4 °F 37% 29.91 in 10.0 mi SE 11.5 mph - N/A   Mostly Cloudy
3:00 PM 44.6 °F 38.4 °F 21.2 °F 39% 29.91 in 10.0 mi SSE 12.7 mph - N/A   Mostly Cloudy
3:20 PM 44.6 °F 38.8 °F 21.2 °F 39% 29.90 in 10.0 mi SE 11.5 mph - N/A   Mostly Cloudy
3:40 PM 42.8 °F 36.2 °F 23.0 °F 46% 29.91 in 10.0 mi SE 12.7 mph - N/A   Mostly Cloudy
4:00 PM 42.8 °F 36.2 °F 23.0 °F 46% 29.91 in 10.0 mi SE 12.7 mph - N/A   Scattered Clouds
4:20 PM 42.8 °F 35.8 °F 23.0 °F 46% 29.91 in 10.0 mi SE 13.8 mph - N/A   Clear
4:40 PM 42.8 °F 35.8 °F 26.6 °F 53% 29.91 in 10.0 mi SE 13.8 mph - N/A   Clear
5:00 PM 42.8 °F 35.8 °F 26.6 °F 53% 29.90 in 10.0 mi SE 13.8 mph - N/A   Clear
5:20 PM 42.8 °F 35.8 °F 28.4 °F 57% 29.88 in 10.0 mi SE 13.8 mph - N/A   Clear
5:40 PM 42.8 °F 37.0 °F 28.4 °F 57% 29.90 in 10.0 mi SE 10.4 mph - N/A   Clear
6:00 PM 41.0 °F 34.7 °F 30.2 °F 65% 29.90 in 10.0 mi SE 10.4 mph - N/A   Clear
6:20 PM 41.0 °F 34.7 °F 30.2 °F 65% 29.90 in 10.0 mi SE 10.4 mph - N/A   Scattered Clouds
6:40 PM 41.0 °F 34.3 °F 28.4 °F 61% 29.90 in 10.0 mi SE 11.5 mph - N/A   Scattered Clouds
7:00 PM 41.0 °F 34.3 °F 30.2 °F 65% 29.90 in 10.0 mi SE 11.5 mph - N/A   Scattered Clouds
7:20 PM 41.0 °F 33.9 °F 30.2 °F 65% 29.89 in 10.0 mi SE 12.7 mph - N/A   Scattered Clouds
7:40 PM 41.0 °F 34.3 °F 30.2 °F 65% 29.88 in 10.0 mi SE 11.5 mph - N/A   Clear
8:00 PM 41.0 °F 33.9 °F 32.0 °F 70% 29.87 in 10.0 mi SE 12.7 mph - N/A   Clear
8:20 PM 41.0 °F 33.5 °F 32.0 °F 70% 29.86 in 10.0 mi SE 13.8 mph - N/A   Clear
8:40 PM 41.0 °F 34.3 °F 32.0 °F 70% 29.85 in 10.0 mi SE 11.5 mph - N/A   Clear
9:00 PM 41.0 °F 33.9 °F 32.0 °F 70% 29.84 in 10.0 mi SE 12.7 mph - N/A   Clear
9:20 PM 41.0 °F 33.9 °F 33.8 °F 76% 29.84 in 10.0 mi SE 12.7 mph - N/A   Clear
9:40 PM 41.0 °F 33.1 °F 33.8 °F 76% 29.84 in 10.0 mi SSE 15.0 mph - N/A   Clear
10:00 PM 42.8 °F 36.2 °F 35.6 °F 76% 29.84 in 10.0 mi SSE 12.7 mph - N/A   Clear
10:20 PM 42.8 °F 36.2 °F 35.6 °F 76% 29.83 in 10.0 mi SSE 12.7 mph - N/A   Clear
10:40 PM 44.6 °F 38.1 °F 37.4 °F 76% 29.82 in 10.0 mi SSE 13.8 mph 18.4 mph N/A   Clear
11:00 PM 46.4 °F 40.1 °F 37.4 °F 71% 29.81 in 10.0 mi SSE 15.0 mph - N/A   Clear
11:20 PM 48.2 °F - 37.4 °F 66% 29.80 in 10.0 mi South 12.7 mph 20.7 mph N/A   Clear
11:40 PM 48.2 °F - 39.2 °F 71% 29.79 in 10.0 mi South 16.1 mph 20.7 mph N/A   Clear